Regional Weather Roundup
Issued by NWS

Current Version | Previous Version | Graphics & Text | Print | Product List | Glossary On
Versions: 1 2 3 4 5 6 7 8 9 10 11 12 13 14 15 16 17 18 19 20 21 22 23 24 25 26 27 28 29 30 31 32 33 34 35 36 37 38 39 40 41 42 43 44 45 46 47 48 49 50
000
ASHW40 PHFO 231142
RWRHI

WEATHER ROUNDUP FOR HAWAII
NATIONAL WEATHER SERVICE HONOLULU HI
100 AM HST SAT JUN 23 2018

THIS IS AN AUTOMATED REPORT THAT HAS NOT BEEN QUALITY CONTROLLED.

NOTE..."FAIR" INDICATES FEW OR NO CLOUDS BELOW 12,000 FEET WITH NO
SIGNIFICANT WEATHER AND/OR OBSTRUCTIONS TO VISIBILITY.

* - THESE SITES REPORT LIMITED FIELDS
# - BUOY DATA PROVIDED BY PACIFIC ISLANDS OCEAN OBSERVING SYSTEM.

HIZ001>004-231200-
KAUAI-NIIHAU-

CITY           SKY/WX    TMP DP  RH WIND       PRES   REMARKS
LIHUE APT      MOCLDY    77  73  87 E16       30.06F
PORT ALLEN*      N/A     75 N/A N/A NE15G21     N/A
POIPU*           N/A     77 N/A N/A NE8G18      N/A
PRINCEVILLE*     N/A     73 N/A N/A SE6G12      N/A
KOKOLE POINT*  NOT AVBL
MOLOAA DAIRY*    N/A     75  70  83 E5G16       N/A
WAIMEA HTS*      N/A     72  66  83 E3G12       N/A
PUU OPAE*        N/A     64  63  94 S2          N/A
PUU LUA*       NOT AVBL
MAKAHA RIDGE*    N/A     68  64  88 SE2         N/A
$$

HIZ005>011-231200-
OAHU-

CITY           SKY/WX    TMP DP  RH WIND       PRES   REMARKS
HONOLULU       MOCLDY    79  65  62 E13       30.03F
KALAELOA       CLEAR     77  65  66 NE5       30.04F
KANEOHE MCB    CLEAR     78  67  68 E12G23    30.02F
WHEELER FIELD  MOCLDY    74  64  73 E5        30.04F
BELLOWS*         N/A    N/A N/A N/A NE22        N/A
KAHUKU*          N/A    N/A N/A N/A NE10G18     N/A
WHEELER*         N/A    N/A N/A N/A CALM        N/A
WAIANAE HARBOR   N/A    N/A N/A N/A NE8G17      N/A
DILLINGHAM*    NOT AVBL
KAHUKU TRN*      N/A     73  64  73 W9          N/A
KAWAILOA*        N/A     70  63  78 E6G20       N/A
KII*             N/A     77  66  69 E20         N/A
MAKUA RANGE*     N/A     79  63  57 SE3G22      N/A
OAHU FOREST NW   N/A     70 N/A N/A E14         N/A
SCHOFIELD BRK*   N/A     72  64  78 NE3         N/A
SCHOFIELD S*   NOT AVBL
WAIANAE VLY*   NOT AVBL
KUAOKALA*        N/A     72  63  73 NE12G21     N/A
HONOULIUULI*   NOT AVBL
MOKUOLOE IS*   NOT AVBL
PALEHUA*         N/A     66  63  88 NE12G21     N/A
WAIAWA PHB*    NOT AVBL
$$

HIZ012>013-231200-
MOLOKAI-

CITY           SKY/WX    TMP DP  RH WIND       PRES   REMARKS
MOLOKAI AIRPT  PTCLDY    77  66  68 NE12G22   30.05F
KALAUPAPA      NOT AVBL
MAKAPULAPAI*     N/A     75  66  73 E20         N/A
MOLOKAI 1*     NOT AVBL
PUU ALII*        N/A     59  56  90 N3G13       N/A
$$

HIZ016-231200-
KAHOOLAWE-

CITY           SKY/WX    TMP DP  RH WIND       PRES   REMARKS
KAHOOLAWE*     NOT AVBL
HAKIOAWA*        N/A     71  66  84 MISG      30.42F
HONOKANAIA*    NOT AVBL
KANELOA*         N/A     73  68  83 E20G32    30.09S
KEALIALALO*    NOT AVBL
LUA MAKIKA*    NOT AVBL
$$

HIZ014>015-231200-
LANAI-

CITY           SKY/WX    TMP DP  RH WIND       PRES   REMARKS
LANAI CITY     FAIR      70  64  81 NE10      30.07F
LANAI 1*       NOT AVBL
$$

HIZ017>028-231200-
MAUI-

CITY           SKY/WX    TMP DP  RH WIND       PRES   REMARKS
KAHULUI        CLEAR     75  69  81 NE12      30.03F
KAPALUA-W MAUI NOT AVBL
HANA AIRPORT   NOT AVBL
HANA*            N/A     77 N/A N/A E7G14       N/A
HALEAKALA SUMM   N/A     46   7  19 E17         N/A
MAALAEA BAY*     N/A     75 N/A N/A N16G23      N/A
HALEAKALA*     NOT AVBL
KAUPO GAP*     NOT AVBL
KULA 1*          N/A    N/A N/A N/A E3          N/A
$$

HIZ023>026-231200-
BIG ISLAND OF HAWAII COAST AND LOWER SLOPES-

CITY           SKY/WX    TMP DP  RH WIND       PRES   REMARKS
KAILUA KONA    PTCLDY    77  64  64 SE8       29.97F
HILO           LGT RAIN  72  68  87 SE5       30.05S FOG
HONOKAA*         N/A     66 N/A N/A VRB1        N/A
KAWAIHAE MWT*    N/A     79 N/A N/A E12G24      N/A
KAWAIHAE*        N/A     79 N/A N/A SW1       29.97F
SOUTH POINT*     N/A     70 N/A N/A N16G23      N/A
UPOLU AIRPORT* NOT AVBL
KAMUELA*       CLOUDY    63  63 100 NE21G32   30.10S
HAKALAU*         N/A     53  53 100 SW2         N/A
KALOKO-HONOKO*   N/A     75  66  73 SE2       29.96F
PALI 2*          N/A     64  59  82 N16         N/A
KEALAKOMO*       N/A     75  66  73 N12         N/A
KAUPULEHU*       N/A    N/A N/A N/A E6G12       N/A
KAPAPALA*        N/A     64  61  90 N3          N/A
LOWER KAHUKU*  NOT AVBL
PUHE CS*         N/A     79  64  61 E10G21      N/A
PUHO CS*         N/A     75  66  73 E2          N/A
PTA KEAMUKU*     N/A     61  52  72 NE5         N/A
WAIKOLOA*        N/A     72  61  68 E15G31      N/A
$$

HIZ027>028-231200-
BIG ISLAND OF HAWAII INTERIOR AND SUMMMITS-

CITY           SKY/WX    TMP DP  RH WIND       PRES   REMARKS
BRADSHAW FIELD CLOUDY    47  35  65 SE5       30.31F
MK VISITOR CEN   N/A     54  -4   9 NE9         N/A
MAUNA KEA*       N/A     36 -18   9 NE21        N/A  WCI  24
MAUNA LOA*       N/A     46 -20   5 MISG        N/A
MAUNA LOA 1*   NOT AVBL
PTA KIPUKA*      N/A     54  48  82 N5          N/A
PTA RANGE 17*    N/A     55  52  88 W8G21       N/A
PTA WEST*        N/A     55  48  76 S9          N/A
NENE CABIN*      N/A     46  45  93 NE7G14      N/A
AHUMOA*          N/A     48  46  93 E6          N/A
PTA PORTABLE*  NOT AVBL
PUU MALI*        N/A     54  34  47 S5G26       N/A
$$

HIC003-231200-
NORTHWEST ISLANDS-

CITY           SKY/WX    TMP DP  RH WIND       PRES   REMARKS
MIDWAY ISLAND  CLOUDY    75  75 100 E10       30.12S
MIDWAY NOS*      N/A     75 N/A N/A MISG      30.11S
FRENCH FRIGATE NOT AVBL
$$

PHZ110>124-180-231200-
BUOY REPORTS

STATION/POSITION TIME  TEMP    WIND        PRES    WAVE   SWELL
                       AIR SEA DIR/SP/G            HT/PER HT/DIR
                 (UTC) (F)     (DEG/KT/KT) (MB)    (FT/S) (FT/D)
BUOY 51101       NOT AVBL
BUOY 51100       NOT AVBL
BUOY 51002       1120   80 80   70/ 19/ 23 1014.4
BUOY 51003       1050   79 80   60/ 12/ 14 1015.6F   5/ 8   5/130
BUOY 51004       1120   78 79   70/ 19/ 25   N/A
WAIMEA BAY#      NOT AVBL
MOKAPU POINT#    1104      80                N/A     6/ 6   2/120
LANAI#           NOT AVBL
BARBERS PT 2#    NOT AVBL
PAUWELA#         1100      79                N/A     7/ 7   2/ 70
HILO#            1127      78                N/A     7/ 7   2/110
KANEOHE BAY#     1124      79                N/A     6/ 7
KANEOHE BAY 2#   NOT AVBL
HANALEI#         NOT AVBL
KAHULUI HARBOR   1054   76 81   60/ 11/ 19 1016.8F
HONOLULU HARBOR  1054   78 80  110/  6/ 12 1016.4F
PEARL HARBOR#    1100      80                N/A     3/ 5   2/160
KILO NALU        NOT AVBL
HILO HARBOR      1054   71 79  220/  7/  8 1017.2F
MOKUOLOE         1036   79 82   70/ 14/ 19 1017.6F
NAWILIWILI       1054   78 83   60/ 10/ 15 1017.8F
WHOTS BUOY       NOT AVBL
BUOY 51028       NOT AVBL
$$

......................KEY........................................
  SKY/WX - SKY CONDITIONS/PRESENT WEATHER
  TMP    - TEMPERATURE IN FAHRENHEIT
  DWPT   - DEWPOINT IN FAHRENHEIT
  RH     - RELATIVE HUMIDITY IN PERCENT
  WIND   - DIRECTION AND SPEED /MPH FOR ISLANDS...KTS FOR BUOYS/
  PRES   - MEAN SEA LEVEL PRESSURE IN INCHES OF HG
  VSB    - VISIBILITY IN MILES
  HX     - HEAT INDEX
  WCI    - WIND CHILL INDEX
  VRB    - VARIABLE WIND DIRECTION
  N/A    - NOT AVAILABLE



USA.gov is the U.S. government's official web portal to all federal, state and local government web resources and services.